Weather in Telyatniki

Russia / Ryazan Oblast     53°38′07″N   40°58′55″E
temp.,
°C
wind,
m/s
gust,
m/s
humid.,
%
clouds,
%
prec.,
mm/h
press.,
hPa
HPBL,
m
18 september, sat
sat1800:00+5nne3567100 0.0 1021209
03:00+2ne35795 0.0 102287
06:00+2ne3485100 0.0 102277
09:00+7ene355685 0.0 1023552
12:00+11ene4444100 0.0 10221204
15:00+12e3439100 0.0 10221401
18:00+10ene3545100 0.0 1022124
21:00+8e3854100 0.0 1023174
19 september, sun
sun1900:00+7e51058100 0.0 1022337
03:00+7e51059100 0.0 1022371
06:00+7e51159100 0.0 1022416
09:00+8ese61060100 0.2 1022604
12:00+8ese61167100 0.5 1021697
15:00+10ese71260100 0.7 1020791
18:00+8ese71471100 0.5 1019789
21:00+7e81689100 4.4 1017647
20 september, mon
mon2000:00+7e91793100 9.4 1016813
03:00+7e81593100 15.4 1015892
06:00+7ese91591100 0.3 1014768
09:00+7e81491100 0.3 1014685
12:00+7e71392100 0.3 1014656
15:00+8e71392100 0.6 1013681
18:00+7ese81489100 0.1 1013642
21:00+6e81592100 3.8 1013663
21 september, tue
tue2100:00+7e71494100 3.6 1012603
03:00+8ese61294100 4.3 1011511
06:00+8ese61095100 0.9 1010368
09:00+8se5995100 3.1 1010450
12:00+10se3592100 0.0 1010355
15:00+13ssw367240 0.8 1010781
18:00+11sw3679100 0.1 1010179
21:00+10ssw2486100 0.1 1011117
22 september, wed
wed2200:00+9sw2490100 0.0 1010192
03:00+9sw2489100 0.0 1010320
06:00+7ssw3592100 0.0 1010157
09:00+8sw3482100 0.1 1010509
12:00+9ssw3475100 0.1 1010835
15:00+9ssw4671100 0.2 1011987
18:00+8sw4579100 0.1 1011652
21:00+7s4684100 0.1 1012576